Regional Weather Roundup
Issued by NWS

Home | Current Version | Previous Version | Graphics & Text | Print | Product List | Glossary On
Versions: 1 2 3 4 5 6 7 8 9 10 11 12 13 14 15 16 17 18 19 20 21 22 23 24 25 26 27 28 29 30 31 32 33 34 35 36 37 38 39 40 41 42 43 44 45 46 47 48 49 50
000
ASUS43 KMKX 270700
RWRWI

WISCONSIN REGIONAL WEATHER ROUNDUP
NATIONAL WEATHER SERVICE MILWAUKEE/SULLIVAN WI
200 AM CDT SAT MAY 27 2017

NOTE: "FAIR" INDICATES FEW OR NO CLOUDS BELOW 12,000 FEET WITH NO
SIGNIFICANT WEATHER AND/OR OBSTRUCTIONS TO VISIBILITY.

WIZ001-002-006>008-014>016-023>028-270800-
NORTHWEST WISCONSIN

CITY           SKY/WX    TMP DP  RH WIND       PRES   REMARKS
SUPERIOR ARPT  NOT AVBL
ASHLAND        CLEAR     52  51  97 SW6       29.79R
HAYWARD        FOG       50  48  93 CALM      29.82S VSB 1
SIREN          CLEAR     51  50  97 CALM      29.83R
CUMBERLAND     FOG       52  52 100 CALM      29.84R VSB 1/2
RICE LAKE      FOG       55  54  97 CALM      29.85R VSB 1/4
CHETEK         FOG       54  54 100 CALM      29.83S VSB<1/4
LADYSMITH      CLEAR     59  58  96 SE5       29.85F
EAU CLAIRE     NOT AVBL
MENOMONIE      CLEAR     60  56  87 W5        29.84R
NEW RICHMOND   CLEAR     55  47  73 W7        29.85R
OSCEOLA        CLEAR     53  48  83 SW3       29.87R
$$

WIZ003>005-009-010-017-018-270800-
NORTH CENTRAL WISCONSIN

CITY           SKY/WX    TMP DP  RH WIND       PRES   REMARKS
MANITOWISH WTR PTCLDY    55  55 100 S5        29.84S
ARBOR VITAE    PTCLDY    58  55  88 SW5       29.85S
WOODRUFF       PTCLDY    58  55  88 SW5       29.85S
RHINELANDER    PTCLDY    58  54  86 SW6       29.87S
EAGLE RIVER    PTCLDY    54  54 100 CALM      29.85S
LAND O LAKES   MOCLDY    57  56  96 CALM      29.87S
PHILLIPS       CLOUDY    58  58 100 S6        29.83F
TOMAHAWK       CLOUDY    55  53  94 CALM      29.88R
MEDFORD        CLOUDY    58  54  86 S8        29.86S
MERRILL        CLOUDY    54  53  97 W5        29.88R
$$

WIZ029-030-035-036-043>047-270800-
CENTRAL WISCONSIN

CITY           SKY/WX    TMP DP  RH WIND       PRES   REMARKS
WAUSAU         PTCLDY    54  52  93 CALM      29.85F
MOSINEE        PTCLDY    52  52 100 S5        29.88S
MARSHFIELD     PTCLDY    55  51  86 SW6       29.86S
STEVENS POINT  CLEAR     53  52  99 S6        29.88F
WAUPACA        CLEAR     56  55  95 CALM      29.89R
WAUTOMA        CLEAR     51  50  96 CALM      29.88F
WISC RAPIDS    CLEAR     55  53  93 SW3       29.88S
CAMP DOUGLAS   CLEAR     51  50  99 CALM      29.87S
$$

WIZ011>013-019>022-031-037>040-048>050-270800-
NORTHEAST WISCONSIN

CITY           SKY/WX    TMP DP  RH WIND       PRES   REMARKS
ANTIGO         CLEAR     51  51  99 S5        29.88R
SHAWANO        CLEAR     58  54  88 CALM      29.87F
OCONTO         PTCLDY    52  51  97 CALM      29.86F
STURGEON BAY   CLOUDY    53  50  89 CALM      29.88F
GREEN BAY      CLEAR     54  54 100 S3        29.88R
MANITOWOC      NOT AVBL
APPLETON       CLEAR     54  50  87 W6        29.87R
CLINTONVILLE   CLEAR     54  52  94 SW5       29.87S
OSHKOSH        CLEAR     56  50  80 CALM      29.88R
$$

WIZ032>034-041-042-053>061-270800-
SOUTHWEST WISCONSIN

CITY           SKY/WX    TMP DP  RH WIND       PRES   REMARKS
LA CROSSE      CLEAR     61  58  90 S5        29.87R
SPARTA         PTCLDY    49  49 100 CALM      29.89R
VIROQUA        PTCLDY    55  55  97 CALM      29.89R
BOSCOBEL       FOG       53  52  96 CALM      29.88S VSB 1/4
PRAIRIE DU CHI CLEAR     54  52  95 CALM      29.88R
PLATTEVILLE    CLEAR     55  55 100 E7        29.88F
$$

WIZ056-057-062-063-064-067-068-270800-
SOUTH CENTRAL WISCONSIN

CITY           SKY/WX    TMP DP  RH WIND       PRES   REMARKS
REEDSBURG      CLEAR     51  51 100 CALM      29.87F FOG
BARABOO/DELLS  CLEAR     51  49  94 S3        29.88F FOG
LONE ROCK      MOCLDY    52  51  97 CALM      29.88S FOG
MINERAL POINT  CLEAR     54  54 100 SE5       29.89S FOG
MADISON        FOG       49  49 100 CALM      29.88F VSB 1/4
MIDDLETON      PTCLDY    50  50 100 CALM      29.90S
WATERTOWN      MOCLDY    48  48 100 CALM      29.89S FOG
MONROE         CLEAR     54  52  94 CALM      29.89S FOG
JANESVILLE     FOG       52  52 100 CALM      29.88F VSB 3/4
$$

WIZ051-052-058>065-066-070>072-270800-
SOUTHEAST WISCONSIN

CITY           SKY/WX    TMP DP  RH WIND       PRES   REMARKS
MILWAUKEE      PTCLDY    51  50  96 CALM      29.88S
WAUKESHA       FOG       50  50 100 CALM      29.90S VSB 1/4
MILWAUKEE/TIMM   N/A     52  50  93 CALM      29.89S
RACINE         CLEAR     49  47  93 CALM      29.90R
KENOSHA        PTCLDY    50  50 100 NE3       29.88S FOG
FOND DU LAC    CLEAR     52  49  89 S3        29.89R
SHEBOYGAN      CLEAR     51  51 100 SW5       29.88R FOG
WEST BEND      CLEAR     50  50 100 CALM      29.89R FOG
JUNEAU         CLEAR     51  51  97 CALM      29.90S FOG
$$

LSZ147-162-270800-
LAKE SUPERIOR

STATION/POSITION TIME  TEMP    WIND        PRES    WAVE
                       AIR SEA DIR/SP/G            HT/PER
                 (UTC) (F)     (DEG/KT/KT) (MB)    (FT/S)
W MID LAKE BUOY  0550   45 37  140/  6/  8 1008.6S   0
DEVILS ISLAND    0600   45     200/  6/  7 1008.8R
PORT WING        0540   44     190/  2/  3 1009.5R
SAXON HARBOR     0640   59     200/  6/  8 1008.1F
$$

LMZ867-665-643>646-270800-
LAKE MICHIGAN

STATION/POSITION TIME  TEMP    WIND        PRES    WAVE
                       AIR SEA DIR/SP/G            HT/PER
                 (UTC) (F)     (DEG/KT/KT) (MB)    (FT/S)
CHAMBERS ISLAND  0640   55      CALM  /  4 1011.2S
N MID LAKE BUOY  0550   44 42  180/  6/  6 1012.8F   0
NORTHPORT PIER   0640   53     160/  5/  9 1011.9R
SISTER BAY       0521   54        CALM       N/A
KEWAUNEE LAKESHO 0630   51      CALM  /  2 1011.4R
SHEBOYGAN LAKESH 0600   50     170/  5/  5 1011.7S
PORT WASHINGTON  0630   50      CALM  /  2 1012.5S
ATWATER BUOY     0509   48      CALM  /  2 1012.0R
MILWAUKEE LAKESH 0630   50        CALM       N/A
S MID LAKE BUOY  0550   48 46  360/  8/ 10 1012.1R   0
KENOSHA   LAKESH 0600   51      30/  3/  4 1011.9
$$

TC  - TEMPERATURE IN CELSIUS
VSB - VISIBILITY IN STATUTE MILES
WCI - WIND CHILL INDEX
HX  - HEAT INDEX





USA.gov is the U.S. government's official web portal to all federal, state and local government web resources and services.